| time (UTC) | temp F | wind direction | speed knots | gust knots | rain 1hr in | rain 24hr in | rain mn in | humidity % | barometer mb |
| 20260502191603 | 71 | 24 | 4.3 | 11.3 | 0.00 | 0.38 | 0.00 | 63 | 1019.6 |
| 20260502191113 | 70 | 314 | 4.3 | 11.3 | 0.00 | 0.38 | 0.00 | 63 | 1019.7 |
| 20260502190617 | 71 | 309 | 7.0 | 11.3 | 0.00 | 0.38 | 0.00 | 61 | 1019.8 |
| 20260502190044 | 71 | 5 | 6.1 | 8.7 | 0.00 | 0.40 | 0.00 | 64 | 1019.8 |
| 20260502185549 | 70 | 329 | 3.5 | 9.6 | 0.00 | 0.40 | 0.00 | 61 | 1019.9 |
| 20260502185058 | 70 | 5 | 4.3 | 9.6 | 0.00 | 0.40 | 0.00 | 64 | 1020.1 |
| 20260502184531 | 70 | 355 | 7.0 | 10.4 | 0.00 | 0.40 | 0.00 | 63 | 1020.1 |
| 20260502184035 | 71 | 349 | 7.0 | 10.4 | 0.00 | 0.40 | 0.00 | 62 | 1020.1 |
| 20260502183034 | 70 | 322 | 3.5 | 10.4 | 0.00 | 0.40 | 0.00 | 64 | 1020.4 |
| 20260502182546 | 70 | 346 | 5.2 | 10.4 | 0.00 | 0.40 | 0.00 | 62 | 1020.4 |
| 20260502181609 | 69 | 16 | 2.6 | 11.3 | 0.00 | 0.40 | 0.00 | 64 | 1020.5 |
| 20260502181120 | 69 | 355 | 7.8 | 11.3 | 0.00 | 0.40 | 0.00 | 61 | 1020.5 |
| 20260502180623 | 69 | 303 | 7.0 | 10.4 | 0.00 | 0.40 | 0.00 | 63 | 1020.7 |
| 20260502170124 | 67 | 313 | 4.3 | 11.3 | 0.00 | 0.41 | 0.00 | 71 | 1021.1 |
| 20260502164035 | 66 | 30 | 5.2 | 10.4 | 0.00 | 0.45 | 0.00 | 72 | 1021.2 |
| 20260502163055 | 66 | 333 | 4.3 | 10.4 | 0.00 | 0.45 | 0.00 | 75 | 1021.3 |
| 20260502162608 | 65 | 40 | 6.1 | 10.4 | 0.00 | 0.45 | 0.00 | 73 | 1021.3 |
| 20260502161548 | 65 | 360 | 5.2 | 8.7 | 0.00 | 0.45 | 0.00 | 75 | 1021.2 |
| 20260502161056 | 65 | 327 | 3.5 | 9.6 | 0.00 | 0.45 | 0.00 | 76 | 1021.2 |
| 20260502152138 | 62 | 340 | 4.3 | 8.7 | 0.00 | 0.53 | 0.00 | 80 | 1021.0 |
| 20260502151548 | 62 | 23 | 3.5 | 8.7 | 0.00 | 0.53 | 0.00 | 80 | 1021.0 |
| 20260502151101 | 61 | 340 | 5.2 | 8.7 | 0.00 | 0.53 | 0.00 | 81 | 1021.1 |
| 20260502150600 | 61 | 19 | 5.2 | 9.6 | 0.00 | 0.53 | 0.00 | 80 | 1021.0 |
| 20260502130528 | 52 | 319 | 3.5 | 7.8 | 0.00 | 0.67 | 0.00 | 93 | 1019.8 |
| 20260502130138 | 52 | 319 | 4.3 | 7.0 | 0.00 | 0.67 | 0.00 | 93 | 1019.8 |
| 20260502123623 | 51 | 328 | 3.5 | 4.3 | 0.00 | 0.84 | 0.00 | 93 | 1019.4 |
| 20260502123054 | 51 | 311 | 2.6 | 4.3 | 0.00 | 0.84 | 0.00 | 93 | 1019.1 |
| 20260502122557 | 50 | 96 | 2.6 | 3.5 | 0.00 | 0.84 | 0.00 | 93 | 1019.1 |
| 20260502121617 | 50 | 324 | 2.6 | 3.5 | 0.00 | 0.84 | 0.00 | 93 | 1018.9 |
| 20260502121105 | 50 | 324 | 2.6 | 4.3 | 0.00 | 0.84 | 0.00 | 93 | 1018.8 |
| 20260502120616 | 50 | 324 | 2.6 | 4.3 | 0.00 | 0.84 | 0.00 | 93 | 1018.8 |
| 20260502115642 | 50 | 325 | 2.6 | 4.3 | 0.00 | 1.08 | 0.00 | 93 | 1018.7 |
| 20260502115123 | 50 | 298 | 2.6 | 4.3 | 0.00 | 1.08 | 0.00 | 93 | 1018.7 |
| 20260502114548 | 50 | 324 | 2.6 | 3.5 | 0.00 | 1.08 | 0.00 | 93 | 1018.6 |
| 20260502114102 | 50 | 322 | 2.6 | 4.3 | 0.00 | 1.08 | 0.00 | 93 | 1018.6 |
| 20260502113125 | 50 | 324 | 2.6 | 3.5 | 0.00 | 1.08 | 0.00 | 93 | 1018.5 |
| 20260502112604 | 51 | 325 | 2.6 | 4.3 | 0.00 | 1.08 | 0.00 | 93 | 1018.4 |
| 20260502112116 | 51 | 326 | 2.6 | 4.3 | 0.00 | 1.08 | 0.00 | 93 | 1018.4 |
| 20260502111542 | 51 | 327 | 2.6 | 4.3 | 0.00 | 1.08 | 0.00 | 93 | 1018.2 |
| 20260502111048 | 51 | 327 | 2.6 | 5.2 | 0.00 | 1.08 | 0.00 | 93 | 1018.1 |
| 20260502110056 | 51 | 346 | 3.5 | 4.3 | 0.00 | 1.08 | 0.00 | 93 | 1017.9 |
| 20260502105559 | 51 | 346 | 2.6 | 4.3 | 0.00 | 1.18 | 0.00 | 93 | 1017.9 |
| 20260502104620 | 51 | 9 | 1.7 | 3.5 | 0.00 | 1.18 | 0.00 | 93 | 1017.6 |
| 20260502104031 | 51 | 5 | 1.7 | 4.3 | 0.00 | 1.18 | 0.00 | 93 | 1017.6 |
| 20260502103534 | 51 | 355 | 1.7 | 4.3 | 0.00 | 1.18 | 0.00 | 93 | 1017.5 |
| 20260502103123 | 51 | 355 | 2.6 | 5.2 | 0.00 | 1.18 | 0.00 | 93 | 1017.6 |
| 20260502102533 | 51 | 360 | 1.7 | 5.2 | 0.00 | 1.18 | 0.00 | 93 | 1017.5 |
| 20260502102139 | 51 | 15 | 1.7 | 5.2 | 0.00 | 1.18 | 0.00 | 93 | 1017.5 |
| 20260502101543 | 51 | 9 | 2.6 | 5.2 | 0.00 | 1.18 | 0.00 | 93 | 1017.5 |
| 20260502101047 | 51 | 350 | 1.7 | 5.2 | 0.00 | 1.18 | 0.00 | 93 | 1017.5 |
| 20260502100114 | 51 | 355 | 3.5 | 5.2 | 0.00 | 1.18 | 0.00 | 93 | 1017.4 |
| 20260502091049 | 51 | 327 | 3.5 | 5.2 | 0.00 | 1.30 | 0.00 | 93 | 1017.0 |
| 20260502071534 | 52 | 26 | 1.7 | 5.2 | 0.00 | 1.51 | 0.00 | 92 | 1016.3 |
| 20260502071037 | 52 | 15 | 1.7 | 5.2 | 0.00 | 1.51 | 0.00 | 92 | 1016.2 |
| 20260502070645 | 52 | 350 | 3.5 | 5.2 | 0.00 | 1.51 | 0.00 | 92 | 1016.3 |
| 20260502070053 | 52 | 348 | 2.6 | 7.0 | 0.00 | 1.53 | 0.00 | 92 | 1016.4 |
| 20260502065602 | 52 | 360 | 3.5 | 4.3 | 0.00 | 1.53 | 0.00 | 91 | 1016.3 |
| 20260502065033 | 52 | 17 | 1.7 | 5.2 | 0.00 | 1.53 | 0.00 | 91 | 1016.3 |
| 20260502064544 | 53 | 25 | 1.7 | 5.2 | 0.00 | 1.53 | 0.00 | 91 | 1016.2 |
| 20260502064034 | 53 | 30 | 2.6 | 5.2 | 0.00 | 1.53 | 0.00 | 91 | 1016.3 |
| 20260502063545 | 53 | 30 | 2.6 | 4.3 | 0.00 | 1.53 | 0.00 | 92 | 1016.3 |
| 20260502063038 | 53 | 5 | 2.6 | 4.3 | 0.00 | 1.53 | 0.00 | 92 | 1016.3 |
| 20260502062527 | 53 | 351 | 2.6 | 5.2 | 0.00 | 1.53 | 0.00 | 92 | 1016.5 |
| 20260502062056 | 53 | 5 | 2.6 | 5.2 | 0.00 | 1.53 | 0.00 | 92 | 1016.5 |
| 20260502061527 | 53 | 30 | 2.6 | 7.0 | 0.00 | 1.53 | 0.00 | 92 | 1016.5 |
| 20260502061037 | 53 | 34 | 1.7 | 7.8 | 0.00 | 1.53 | 0.00 | 92 | 1016.5 |
| 20260502060553 | 53 | 11 | 4.3 | 7.8 | 0.00 | 1.53 | 0.00 | 92 | 1016.5 |
| 20260502060042 | 53 | 36 | 4.3 | 9.6 | 0.00 | 1.64 | 0.00 | 92 | 1016.5 |
| 20260502055532 | 53 | 31 | 4.3 | 9.6 | 0.00 | 1.64 | 0.00 | 92 | 1016.5 |
| 20260502055042 | 53 | 48 | 5.2 | 9.6 | 0.00 | 1.64 | 0.00 | 92 | 1016.5 |
| 20260502054601 | 53 | 26 | 4.3 | 8.7 | 0.00 | 1.64 | 0.00 | 92 | 1016.4 |
| 20260502054111 | 53 | 53 | 3.5 | 8.7 | 0.00 | 1.64 | 0.00 | 92 | 1016.4 |
| 20260502053534 | 52 | 39 | 2.6 | 8.7 | 0.00 | 1.64 | 0.00 | 92 | 1016.4 |
| 20260502053031 | 52 | 55 | 5.2 | 8.7 | 0.00 | 1.64 | 0.00 | 92 | 1016.4 |
| 20260502052609 | 53 | 52 | 4.3 | 7.8 | 0.00 | 1.64 | 0.00 | 92 | 1016.4 |
| 20260502052030 | 52 | 17 | 3.5 | 8.7 | 0.00 | 1.64 | 0.00 | 92 | 1016.4 |
| 20260502051550 | 52 | 36 | 4.3 | 8.7 | 0.00 | 1.64 | 0.00 | 92 | 1016.4 |
| 20260502051032 | 52 | 32 | 4.3 | 9.6 | 0.00 | 1.64 | 0.00 | 92 | 1016.4 |
| 20260502050608 | 52 | 28 | 5.2 | 9.6 | 0.00 | 1.64 | 0.00 | 92 | 1016.4 |
| 20260502050128 | 52 | 61 | 4.3 | 8.7 | 0.00 | 1.64 | 0.00 | 92 | 1016.4 |
| 20260502045530 | 52 | 32 | 5.2 | 11.3 | 0.00 | 1.73 | 1.64 | 92 | 1016.4 |
| 20260502044558 | 52 | 78 | 5.2 | 13.0 | 0.00 | 1.73 | 1.64 | 92 | 1016.1 |
| 20260502044103 | 53 | 39 | 7.0 | 11.3 | 0.00 | 1.73 | 1.64 | 92 | 1016.1 |
| 20260502043612 | 53 | 47 | 6.1 | 10.4 | 0.00 | 1.73 | 1.64 | 92 | 1016.1 |
| 20260502043042 | 53 | 20 | 4.3 | 11.3 | 0.00 | 1.73 | 1.64 | 92 | 1016.1 |
| 20260502042551 | 53 | 14 | 7.8 | 12.2 | 0.00 | 1.73 | 1.64 | 92 | 1016.1 |
| 20260502041609 | 53 | 28 | 6.1 | 13.9 | 0.00 | 1.73 | 1.64 | 92 | 1016.0 |
| 20260502041112 | 53 | 349 | 7.8 | 14.8 | 0.00 | 1.73 | 1.64 | 92 | 1016.0 |
| 20260502040623 | 53 | 35 | 9.6 | 14.8 | 0.00 | 1.73 | 1.64 | 92 | 1015.9 |
| 20260502040051 | 54 | 32 | 8.7 | 13.9 | 0.00 | 1.75 | 1.64 | 92 | 1015.9 |
| 20260502035533 | 54 | 19 | 7.0 | 9.6 | 0.00 | 1.75 | 1.64 | 93 | 1016.0 |
| 20260502034602 | 54 | 355 | 6.1 | 12.2 | 0.00 | 1.75 | 1.64 | 93 | 1016.0 |
| 20260502034106 | 54 | 14 | 6.1 | 10.4 | 0.00 | 1.75 | 1.64 | 93 | 1016.0 |
| 20260502033621 | 54 | 23 | 3.5 | 10.4 | 0.00 | 1.75 | 1.64 | 93 | 1016.1 |
| 20260502033039 | 54 | 31 | 5.2 | 10.4 | 0.00 | 1.75 | 1.64 | 93 | 1016.0 |
| 20260502032551 | 54 | 331 | 7.0 | 10.4 | 0.00 | 1.75 | 1.64 | 93 | 1016.0 |
| 20260502032103 | 55 | 15 | 5.2 | 10.4 | 0.00 | 1.75 | 1.64 | 93 | 1016.0 |
| 20260502031643 | 55 | 355 | 5.2 | 10.4 | 0.00 | 1.75 | 1.64 | 93 | 1015.9 |
| 20260502031135 | 55 | 32 | 6.1 | 9.6 | 0.00 | 1.75 | 1.64 | 93 | 1015.8 |
| 20260502030617 | 55 | 9 | 5.2 | 9.6 | 0.00 | 1.75 | 1.64 | 93 | 1015.6 |
| 20260502030044 | 55 | 345 | 4.3 | 12.2 | 0.00 | 1.75 | 1.64 | 93 | 1015.4 |
| 20260502025535 | 55 | 35 | 7.0 | 12.2 | 0.00 | 1.75 | 1.64 | 93 | 1015.3 |
| 20260502024555 | 55 | 28 | 7.8 | 13.0 | 0.00 | 1.75 | 1.64 | 93 | 1015.3 |
| 20260502024037 | 55 | 26 | 7.0 | 12.2 | 0.00 | 1.75 | 1.64 | 93 | 1015.2 |
| 20260502023111 | 55 | 35 | 4.3 | 12.2 | 0.00 | 1.75 | 1.64 | 93 | 1015.3 |
| 20260502022614 | 55 | 32 | 7.0 | 12.2 | 0.00 | 1.75 | 1.64 | 93 | 1015.2 |
| 20260502022127 | 55 | 355 | 5.2 | 13.0 | 0.00 | 1.75 | 1.64 | 93 | 1015.1 |
| 20260502021545 | 55 | 348 | 7.0 | 13.0 | 0.00 | 1.75 | 1.64 | 93 | 1014.9 |
| 20260502021057 | 55 | 34 | 5.2 | 9.6 | 0.00 | 1.75 | 1.64 | 93 | 1014.8 |
| 20260502020119 | 55 | 350 | 3.5 | 8.7 | 0.00 | 1.75 | 1.64 | 93 | 1014.4 |
| 20260502015608 | 55 | 22 | 4.3 | 12.2 | 0.00 | 1.75 | 1.64 | 93 | 1014.4 |
| 20260502014607 | 55 | 26 | 7.0 | 13.0 | 0.00 | 1.75 | 1.64 | 93 | 1013.6 |
| 20260502014123 | 55 | 33 | 6.1 | 13.0 | 0.00 | 1.75 | 1.64 | 93 | 1013.5 |
| 20260502013626 | 55 | 32 | 7.0 | 13.0 | 0.01 | 1.75 | 1.64 | 93 | 1013.2 |
| 20260502013053 | 55 | 26 | 7.0 | 13.0 | 0.01 | 1.75 | 1.64 | 93 | 1013.0 |
| 20260502012558 | 55 | 34 | 7.8 | 12.2 | 0.01 | 1.75 | 1.64 | 93 | 1013.2 |
| 20260502011605 | 55 | 57 | 7.0 | 11.3 | 0.02 | 1.75 | 1.64 | 94 | 1013.2 |
| 20260502011047 | 56 | 57 | 7.0 | 13.0 | 0.03 | 1.75 | 1.64 | 94 | 1013.4 |
| 20260502010047 | 56 | 51 | 9.6 | 13.9 | 0.03 | 1.75 | 1.64 | 93 | 1013.7 |
| 20260502005556 | 56 | 360 | 7.8 | 12.2 | 0.03 | 1.75 | 1.64 | 93 | 1013.9 |
| 20260502005138 | 56 | 355 | 5.2 | 10.4 | 0.04 | 1.75 | 1.64 | 93 | 1013.7 |
| 20260502004545 | 56 | 24 | 6.1 | 13.0 | 0.05 | 1.75 | 1.64 | 93 | 1013.3 |
| 20260502004056 | 56 | 10 | 9.6 | 13.0 | 0.05 | 1.75 | 1.64 | 93 | 1013.1 |
| 20260502003049 | 56 | 58 | 6.1 | 12.2 | 0.05 | 1.74 | 1.63 | 93 | 1013.5 |
| 20260502002601 | 56 | 32 | 7.0 | 13.0 | 0.05 | 1.74 | 1.63 | 93 | 1013.5 |
| 20260502001622 | 57 | 41 | 6.1 | 10.4 | 0.05 | 1.73 | 1.62 | 93 | 1013.5 |
| 20260502001032 | 57 | 19 | 6.1 | 10.4 | 0.07 | 1.73 | 1.62 | 93 | 1013.5 |
| 20260502000057 | 57 | 12 | 5.2 | 13.0 | 0.07 | 1.72 | 1.61 | 93 | 1013.3 |
| 20260501235544 | 57 | 26 | 7.8 | 13.0 | 0.09 | 1.72 | 1.61 | 93 | 1013.1 |
| 20260501234604 | 58 | 29 | 7.8 | 13.9 | 0.10 | 1.71 | 1.60 | 93 | 1012.9 |
| 20260501234046 | 58 | 42 | 7.8 | 11.3 | 0.10 | 1.71 | 1.60 | 94 | 1012.9 |
| 20260501233113 | 58 | 344 | 4.3 | 10.4 | 0.09 | 1.70 | 1.59 | 93 | 1012.7 |
| 20260501232555 | 58 | 346 | 6.1 | 10.4 | 0.08 | 1.69 | 1.58 | 93 | 1012.6 |
| 20260501231615 | 58 | 10 | 6.1 | 13.0 | 0.07 | 1.68 | 1.57 | 93 | 1012.4 |
| 20260501231102 | 58 | 342 | 6.1 | 13.0 | 0.07 | 1.68 | 1.57 | 93 | 1012.3 |
| 20260501230122 | 59 | 32 | 4.3 | 8.7 | 0.08 | 1.66 | 1.55 | 93 | 1012.1 |
| 20260501225534 | 59 | 5 | 5.2 | 9.6 | 0.07 | 1.65 | 1.54 | 93 | 1012.2 |
| 20260501225037 | 59 | 22 | 6.1 | 9.6 | 0.05 | 1.63 | 1.52 | 93 | 1012.1 |
| 20260501224627 | 59 | 351 | 2.6 | 9.6 | 0.03 | 1.61 | 1.50 | 93 | 1012.1 |
| 20260501224029 | 59 | 49 | 6.1 | 11.3 | 0.03 | 1.61 | 1.50 | 93 | 1011.7 |
| 20260501223059 | 59 | 44 | 6.1 | 13.9 | 0.03 | 1.61 | 1.50 | 93 | 1010.7 |
| 20260501222559 | 59 | 26 | 8.7 | 13.9 | 0.03 | 1.61 | 1.50 | 93 | 1010.9 |
| 20260501221619 | 59 | 36 | 5.2 | 12.2 | 0.03 | 1.61 | 1.50 | 93 | 1011.0 |
| 20260501221036 | 59 | 35 | 6.1 | 13.9 | 0.04 | 1.61 | 1.50 | 93 | 1010.9 |
| 20260501220052 | 59 | 55 | 9.6 | 13.0 | 0.06 | 1.59 | 1.48 | 93 | 1010.1 |
| 20260501215603 | 59 | 11 | 8.7 | 13.0 | 0.06 | 1.58 | 1.47 | 93 | 1010.7 |
| 20260501215101 | 59 | 26 | 7.8 | 16.5 | 0.06 | 1.58 | 1.47 | 93 | 1010.5 |
| 20260501214531 | 59 | 59 | 8.7 | 20.0 | 0.07 | 1.58 | 1.47 | 93 | 1009.1 |
| 20260501214035 | 59 | 17 | 10.4 | 20.0 | 0.08 | 1.58 | 1.47 | 93 | 1009.5 |
| 20260501213547 | 59 | 30 | 7.8 | 15.6 | 0.10 | 1.58 | 1.47 | 94 | 1009.3 |
| 20260501213033 | 59 | 74 | 7.8 | 13.9 | 0.10 | 1.58 | 1.47 | 94 | 1009.4 |
| 20260501212545 | 59 | 21 | 6.1 | 13.9 | 0.11 | 1.58 | 1.47 | 94 | 1010.2 |
| 20260501211603 | 59 | 40 | 8.7 | 13.9 | 0.13 | 1.58 | 1.47 | 94 | 1010.1 |
| 20260501211055 | 59 | 32 | 8.7 | 13.9 | 0.14 | 1.58 | 1.47 | 94 | 1010.0 |
| 20260501210115 | 59 | 32 | 8.7 | 13.9 | 0.11 | 1.55 | 1.44 | 94 | 1010.1 |
| 20260501205555 | 59 | 49 | 4.3 | 9.6 | 0.09 | 1.54 | 1.42 | 94 | 1011.0 |
| 20260501205105 | 59 | 19 | 5.2 | 13.9 | 0.09 | 1.53 | 1.41 | 94 | 1011.4 |
| 20260501204533 | 59 | 26 | 5.2 | 13.9 | 0.10 | 1.53 | 1.41 | 94 | 1010.7 |
| 20260501204038 | 59 | 39 | 6.1 | 14.8 | 0.10 | 1.52 | 1.40 | 94 | 1010.3 |
| 20260501203112 | 59 | 355 | 7.0 | 12.2 | 0.08 | 1.49 | 1.37 | 94 | 1011.3 |
| 20260501202616 | 60 | 355 | 4.3 | 12.2 | 0.08 | 1.49 | 1.37 | 94 | 1011.5 |
| 20260501202028 | 59 | 348 | 5.2 | 12.2 | 0.08 | 1.48 | 1.36 | 94 | 1011.1 |
| 20260501201531 | 59 | 16 | 6.1 | 16.5 | 0.08 | 1.47 | 1.35 | 94 | 1011.1 |
| 20260501201038 | 59 | 15 | 8.7 | 16.5 | 0.07 | 1.46 | 1.34 | 94 | 1010.0 |
| 20260501200642 | 60 | 52 | 7.8 | 14.8 | 0.07 | 1.45 | 1.33 | 94 | 1010.0 |
| 20260501200046 | 59 | 14 | 7.8 | 14.8 | 0.08 | 1.45 | 1.33 | 94 | 1010.4 |
| 20260501195529 | 60 | 21 | 5.2 | 13.9 | 0.08 | 1.45 | 1.33 | 93 | 1010.8 |
| 20260501194603 | 60 | 32 | 7.8 | 13.9 | 0.08 | 1.44 | 1.32 | 93 | 1010.4 |
| 20260501194106 | 60 | 52 | 7.0 | 14.8 | 0.07 | 1.43 | 1.31 | 93 | 1010.3 |
| 20260501193618 | 60 | 36 | 7.8 | 14.8 | 0.06 | 1.42 | 1.30 | 94 | 1010.5 |
| 20260501193039 | 60 | 350 | 7.0 | 12.2 | 0.05 | 1.41 | 1.29 | 94 | 1010.6 |
| 20260501192550 | 60 | 346 | 6.1 | 11.3 | 0.05 | 1.41 | 1.29 | 93 | 1011.1 |